Regional Weather Roundup
Issued by NWS Sioux Falls, SD

Home | Current Version | Previous Version | Text Only | Print | Product List | Glossary Off
Versions: 1 2 3 4 5 6 7 8 9 10 11 12 13 14 15 16 17 18 19 20 21 22 23 24 25 26 27 28 29 30 31 32 33 34 35 36 37 38 39 40 41 42 43 44 45 46 47 48 49 50

000
ASUS43 KFSD 271510
RWRFSD

WEATHER ROUNDUP FOR SE SOUTH DAKOTA/SW MINNESOTA/NW IOWA
NATIONAL WEATHER SERVICE SIOUX FALLS SD
1000 AM CDT FRI MAR 27 2015

NOTE: "FAIR" INDICATES FEW OR NO CLOUDS BELOW 12,000 FEET WITH NO
SIGNIFICANT WEATHER AND OR OBSTRUCTIONS TO VISIBILITY.


SDZ038>040-050-052>070-271600-
SOUTHEAST SOUTH DAKOTA

CITY           SKY/WX    TMP DP  RH WIND       PRES   REMARKS
CHAMBERLAIN    CLOUDY    28  19  70 SE12      30.18F WCI  18
HURON          CLOUDY    25  15  66 S10       30.23F WCI  15
MADISON        FAIR      23  16  74 S5        30.23F WCI  17
MITCHELL       PTSUNNY   26  16  65 S9        30.26F WCI  17
SIOUX FALLS    CLOUDY    25  15  66 CALM      30.26F
WINNER         CLOUDY    34  25  69 S10G20    30.14F WCI  26
YANKTON        SUNNY     25  12  58 CALM      30.29S
$$

MNZ071-072-080-081-089-090-097-098-271600-
SOUTHWEST MINNESOTA

CITY           SKY/WX    TMP DP  RH WIND       PRES   REMARKS
FAIRMONT       SUNNY     25   7  46 E3        30.26S
JACKSON        SUNNY     27  10  50 CALM      30.25S
LUVERNE        MOSUNNY   28  12  50 E3        30.26F
MARSHALL       MOSUNNY   25  10  54 CALM      30.27F
MONTEVIDEO     MOSUNNY   28  12  50 S3        30.28S
PIPESTONE      PTSUNNY   25   9  50 CALM      30.23F
REDWOOD FALLS  SUNNY     25   7  46 SE5       30.27F WCI  19
TRACY          MOSUNNY   24  11  58 CALM      30.26F
WINDOM         SUNNY     27  10  50 CALM      30.25S
WORTHINGTON    SUNNY     23   9  54 CALM      30.25F
$$

IAZ001>003-012>014-020>022-031-032-NEZ013-014-SDZ071-271600-
NORTHWEST IOWA

CITY           SKY/WX    TMP DP  RH WIND       PRES   REMARKS
CHEROKEE       SUNNY     26  15  61 CALM      30.28S
DENISON        SUNNY     27  18  69 CALM      30.26S
ESTHERVILLE    SUNNY     25  13  60 CALM      30.25F
LE MARS        SUNNY     25  16  68 CALM      30.29F
ORANGE CITY    SUNNY     27  12  54 CALM      30.26F
SHELDON        SUNNY     25  16  68 CALM      30.25F
SIOUX CITY     MOSUNNY   28  15  58 N5        30.30S WCI  23
SPENCER        SUNNY     27  15  61 NE3       30.27
STORM LAKE     SUNNY     27  14  59 NE5       30.26S WCI  21
$$

ABBREVIATIONS USED IN REMARKS
   TC - TEMPERATURE IN CELSIUS
  WCI - WIND CHILL INDEX
   HX - HEAT INDEX
  VSB - VISIBILITY



USA.gov is the U.S. government's official web portal to all federal, state and local government web resources and services.